Location: Navajo
(48.7922°N, 105.0603°W)
Time: 08:16:03
(UTC+00:00)

CAS-4A - Visible Passes

Search period start: 04 July 2022 00:00
Search period end: 14 July 2022 00:00
Orbit: 523 x 536 km, 43.0° (Epoch: 03 July)

Date Brightness Start Highest point End Pass type
(mag) Time Alt. Az. Time Alt. Az. Time Alt. Az.
04 Jul ? 07:44:57 14° ESE 07:44:57 14° ESE 07:45:56 10° ESE visible
04 Jul ? 09:20:07 18° SW 09:22:28 34° S 09:26:09 10° ESE visible
05 Jul ? 07:32:40 14° ESE 07:32:40 14° ESE 07:33:30 10° ESE visible
05 Jul ? 09:07:51 21° SW 09:09:52 35° S 09:13:34 10° ESE visible
06 Jul ? 07:20:26 13° ESE 07:20:26 13° ESE 07:21:02 10° ESE visible
06 Jul ? 08:55:38 25° SW 08:57:16 36° S 09:00:59 10° ESE visible
07 Jul ? 07:08:17 11° ESE 07:08:17 11° ESE 07:08:32 10° ESE visible
07 Jul ? 08:43:29 29° SW 08:44:39 36° S 08:48:23 10° ESE visible
07 Jul ? 10:20:46 10° WSW 10:24:08 25° SSW 10:27:30 10° SE visible
08 Jul ? 08:31:30 34° SSW 08:32:03 36° S 08:35:46 10° ESE visible
08 Jul ? 10:08:16 10° WSW 10:11:29 23° SSW 10:14:43 10° SSE visible
09 Jul ? 08:19:52 34° S 08:19:52 34° S 08:23:09 10° ESE visible
09 Jul ? 09:55:47 10° WSW 09:58:50 21° SSW 10:01:54 10° SSE visible
10 Jul ? 08:08:55 20° SE 08:08:55 20° SE 08:10:30 10° ESE visible
10 Jul ? 09:44:14 14° WSW 09:46:11 19° SSW 09:49:02 10° SSE visible
11 Jul ? 04:32:47 10° SSW 04:34:57 16° SSE 04:34:57 16° SSE visible
11 Jul ? 09:34:30 15° S 09:34:30 15° S 09:36:05 10° SSE visible
12 Jul ? 04:19:51 10° SSW 04:22:43 19° SSE 04:24:43 14° ESE visible
12 Jul ? 05:58:24 10° WSW 06:00:00 21° SW 06:00:00 21° SW visible
13 Jul ? 04:06:58 10° SSW 04:10:02 21° SSE 04:13:07 10° ESE visible
13 Jul ? 05:45:45 10° WSW 05:48:43 33° SSW 05:48:43 33° SSW visible
